Home   Weather   Krefeld   Past weeks

Flag for Germany Past Weather in Krefeld, North Rhine-Westphalia, Germany — Yesterday and Last 2 Weeks

Now
28 °F

Clear.


Feels Like: 25 °F
Forecast: 23 / 32 °F
Wind: 3 mph from North

Location: Monchengladbach Airport

Current Time: Jan 17, 2017 at 12:05:14 pm

Latest Report: Jan 17, 2017 at 11:20 am


Visibility: 10 mi

Pressure: 30.66 "Hg

Humidity: 74%

Dew Point: 21 °F

Location of KrefeldLocation

Past Weather in Krefeld — Graph

°F

Krefeld Temperature Yesterday

Maximum temperature yesterday: 36 °F (at 1:20 pm)
Minimum temperature yesterday: 27 °F (at 7:20 pm)
Average temperature yesterday: 32 °F

High & Low Weather Summary for the Past Weeks

 TemperatureHumidityPressure
High46 °F (Jan 11, 1:50 pm)100% (Jan 2, 10:50 am)30.74 "Hg (Jan 2, 10:50 am)
Low21 °F (Jan 6, 8:20 am)56% (Jan 5, 1:20 pm)29.36 "Hg (Jan 12, 8:20 pm)
Average36 °F86%30.13 "Hg
* Reported Jan 2 10:20 am — Jan 17 10:50 am, Krefeld, Weather by CustomWeather, © 2017

Note: Actual official high and low records may vary slightly from our data, if they occured in-between our weather recording intervals... More about our weather records

Advertising

Krefeld Weather History for the Previous 24 Hours

Scroll right to see more
 ConditionsComfort  
Time TempWeatherWind HumidityBarometerVisibility
10:50 am
Tue, Jan 17
28 °FPassing clouds.5 mph74%30.66 "HgN/A
10:20 am28 °FClear.2 mph74%30.63 "Hg10 mi
9:50 am25 °FClear.2 mph86%30.63 "Hg10 mi
9:20 am21 °FClear.2 mph93%30.63 "Hg10 mi
8:50 am23 °FPassing clouds.No wind86%30.63 "HgN/A
8:20 am23 °FClear.No wind80%30.60 "Hg10 mi
7:50 am25 °FPassing clouds.5 mph86%30.60 "HgN/A
7:50 pm
Mon, Jan 16
27 °FClear.3 mph93%30.42 "Hg10 mi
7:20 pm27 °FClear.5 mph93%30.42 "Hg10 mi
6:50 pm28 °FClear.5 mph86%30.39 "Hg10 mi
6:20 pm28 °FClear.5 mph93%30.39 "Hg5 mi
5:50 pm28 °FIce fog.5 mph93%30.39 "Hg3 mi
5:20 pm30 °FIce fog.5 mph86%30.39 "Hg3 mi
4:50 pm32 °FIce fog.5 mph80%30.39 "Hg3 mi
4:20 pm32 °FPassing clouds.6 mph87%30.36 "Hg5 mi
3:50 pm34 °FPassing clouds.5 mph81%30.36 "HgN/A
3:20 pm34 °FPassing clouds.6 mph75%30.36 "HgN/A
2:50 pm34 °FPassing clouds.3 mph70%30.33 "HgN/A
2:20 pm34 °FPassing clouds.6 mph75%30.33 "HgN/A
1:50 pm34 °FPassing clouds.5 mph81%30.33 "HgN/A
1:20 pm36 °FPassing clouds.5 mph70%30.33 "HgN/A
12:50 pm34 °FPassing clouds.6 mph81%30.33 "HgN/A
12:20 pm34 °FPassing clouds.6 mph81%30.33 "HgN/A
Weather by CustomWeather, © 2017

See weather overviewHow to use our weather pages